Temp
1 0 0 0 1 4 5 6 11 14 14 13 13 13 13 12 12 12 11 10 9 9 9 9 9 8 7
0 0 0 0 0 1 3 5 9 13 13 13 13 13 13 12 12 12 11 10 9 9 9 9 8 7 7
-0 0 -0 -0 0 1 3 5 9 12 13 13 13 13 13 12 12 12 11 10 9 9 9 8 7 7 7
-1 -0 -0 0 0 1 3 4 6 9 12 13 13 13 12 12 12 12 11 10 9 8 8 8 7 7 7
-1 -1 -0 -0 0 0 1 3 5 8 8 12 12 12 12 12 12 11 11 10 9 8 8 7 7 6 6
-1 -1 -1 -0 -0 -0 -0 1 4 9 10 12 11 11 10 10 11 11 11 10 9 8 8 7 7 6 6
-2 -1 -1 -1 -1 -1 -0 1 2 3 3 8 11 11 10 10 11 12 11 10 9 8 7 7 7 6 6
-2 -2 -2 -1 -1 -1 -1 -1 -1 1 3 5 11 11 10 10 11 11 11 11 9 8 7 7 7 6 6
-2 -2 -1 -1 -1 -1 -1 -1 0 2 4 5 9 11 10 10 9 11 11 11 10 8 7 7 7 6 5
-2 -2 -2 -1 -1 -1 -1 -1 -0 0 4 3 9 11 10 9 8 8 10 11 11 9 7 6 7 6 5
-3 -3 -2 -2 -2 -2 -2 -1 -1 -1 0 1 3 10 11 9 8 8 8 8 8 9 8 7 6 6 5
-3 -3 -3 -2 -3 -2 -2 -2 -2 -1 -0 -1 -0 1 10 9 8 7 8 7 7 6 6 7 6 6 7
-3 -3 -2 -2 -2 -2 -2 -2 -1 -1 -1 -1 -0 1 3 10 9 8 7 7 7 6 5 5 5 5 4
-3 -3 -2 -2 -3 -2 -2 -2 -2 -2 -1 -0 1 1 2 10 8 8 8 7 7 6 5 5 5 4 4
-3 -3 -3 -3 -3 -2 -2 -2 -2 -1 -1 -0 2 2 4 10 8 8 8 8 6 6 5 5 4 4 4
-3 -3 -3 -3 -3 -2 -2 -2 -2 -1 -1 0 2 4 6 8 9 8 8 7 6 6 6 5 4 4 4
-3 -3 -3 -3 -2 -2 -2 -2 -1 -1 -0 -0 2 4 2 7 7 8 8 7 6 6 6 5 4 4 4
Height
770 767 763 758 751 746 746 744 736 736 750 760 772 782 789 802 811 820 830 837 844 851 855 858 862 865 869
768 764 761 757 752 746 739 737 733 726 740 750 763 773 783 794 806 815 825 834 840 849 852 856 860 864 868
764 763 759 757 752 747 744 740 734 725 728 742 755 764 777 787 800 810 821 830 836 845 850 854 856 862 867
762 759 755 754 752 749 740 735 728 727 724 734 747 758 773 781 793 804 815 825 834 841 847 851 854 859 864
757 755 751 747 751 748 739 729 725 724 726 726 740 754 767 776 784 797 808 821 829 837 843 848 852 857 862
752 750 747 746 744 740 738 738 727 727 720 723 733 743 757 769 777 789 801 816 825 833 839 845 849 855 860
745 745 744 741 743 742 740 737 729 726 726 726 724 735 748 761 771 780 794 806 820 828 836 842 847 853 858
738 736 738 740 736 737 735 733 729 727 730 728 715 724 739 752 764 775 786 797 811 823 831 837 844 851 855
732 730 730 732 734 731 728 732 724 718 725 727 718 715 730 745 757 769 780 790 800 816 824 833 839 849 854
724 724 723 723 724 724 724 724 725 715 715 719 708 703 724 737 750 763 775 785 793 806 816 826 834 843 850
715 716 716 715 716 718 719 719 720 716 712 718 708 699 707 722 741 754 766 780 790 801 809 818 828 833 840
707 708 708 709 711 711 713 713 713 714 712 716 711 709 699 713 726 744 757 771 783 793 803 811 823 831 835
697 699 702 702 702 704 705 707 707 707 707 709 710 705 700 696 708 728 747 761 774 785 795 801 811 822 829
692 692 694 696 697 697 699 698 702 700 701 702 699 699 692 687 701 720 733 744 764 776 787 796 806 814 819
684 686 685 686 689 690 693 696 695 694 693 694 694 691 685 680 693 706 724 740 754 767 778 787 796 802 810
677 679 679 681 682 685 686 687 688 687 690 691 690 685 677 685 692 696 715 728 743 757 769 779 789 796 803
669 671 673 674 675 677 678 680 681 683 685 684 683 678 677 679 686 692 699 719 733 748 758 767 775 784 791
Wind_Speed
29 30 30 32 37 33 31 34 26 68 68 60 61 58 56 52 50 44 41 39 36 34 30 27 24 23 21
27 29 28 26 30 37 34 36 34 71 72 66 66 62 58 56 52 46 43 41 38 35 32 29 27 24 22
26 27 28 25 27 33 28 27 24 33 74 68 68 64 61 60 55 49 46 42 41 37 34 32 30 26 24
24 24 26 20 19 23 25 20 22 18 37 65 67 65 64 62 57 53 49 45 41 38 36 34 32 29 27
20 20 20 20 13 16 25 26 28 26 25 55 61 65 66 64 60 57 51 47 44 41 38 36 33 31 29
20 17 19 18 15 15 17 21 5 11 17 40 57 56 57 58 64 60 54 50 47 44 41 38 35 33 31
26 24 19 19 16 12 11 15 16 21 20 17 48 50 53 55 64 63 58 53 49 45 43 40 36 35 33
27 28 26 24 23 22 22 24 32 27 16 14 40 47 51 54 66 66 61 56 52 48 45 43 38 37 34
29 30 31 28 22 21 17 14 15 14 8 13 26 41 48 49 64 68 64 59 55 53 48 46 41 39 35
28 28 26 27 25 20 21 16 12 10 2 16 27 34 20 43 53 64 66 61 56 56 55 49 44 42 39
27 24 25 26 27 29 24 20 15 14 17 17 14 24 21 33 46 54 56 57 58 59 57 54 49 48 46
25 22 21 22 23 24 28 30 31 30 30 22 19 24 14 29 26 47 52 49 47 49 55 55 51 49 47
24 23 23 23 25 22 23 25 26 28 35 36 26 34 24 40 37 44 45 47 48 46 47 49 54 52 45
23 22 25 23 23 21 22 19 22 23 32 32 27 28 28 44 47 44 47 31 49 45 45 44 44 48 48
22 20 24 23 22 20 21 19 17 11 17 20 22 22 14 39 46 52 48 41 50 44 43 40 46 49 49
23 20 21 22 21 20 21 19 17 15 18 14 15 9 10 30 44 50 48 45 48 46 43 39 36 43 50
23 22 20 21 21 19 17 15 9 8 17 14 13 4 2 12 11 46 51 45 47 44 45 44 41 46 49
Wind_Direction
286 296 304 310 315 305 307 312 231 195 191 185 185 185 181 183 182 181 183 182 179 175 172 168 164 162 157
286 294 299 309 312 308 310 314 327 192 191 185 186 185 184 183 184 183 184 183 181 177 174 173 169 166 161
281 286 293 303 310 305 303 308 297 205 188 186 186 184 184 184 185 184 184 185 182 178 177 176 174 169 165
272 281 287 297 307 304 307 316 312 300 197 184 185 186 187 185 185 184 186 185 182 179 179 179 180 172 169
268 274 280 293 295 306 312 320 305 278 310 176 179 182 187 187 184 184 184 188 185 182 183 184 185 176 173
268 266 272 279 297 305 306 314 314 294 254 176 179 178 181 181 184 184 185 187 188 186 185 188 188 180 178
258 259 266 274 282 292 297 298 291 299 322 268 181 177 179 180 187 185 186 187 190 189 189 192 190 185 183
266 267 259 261 263 270 281 286 286 287 291 289 189 176 176 180 190 187 187 188 190 191 191 192 193 190 188
261 264 262 260 256 261 257 268 285 286 289 275 246 170 172 176 186 189 187 189 190 192 192 194 193 193 193
253 257 263 258 250 245 252 238 259 304 176 360 238 156 169 172 178 186 188 191 193 195 193 196 193 191 194
249 250 249 251 249 250 253 248 243 247 282 334 307 170 156 161 173 180 183 187 187 194 195 194 196 195 194
239 238 237 236 238 249 247 253 259 266 273 284 285 300 165 164 169 175 180 183 183 184 190 195 198 200 203
229 227 228 231 243 247 247 248 253 260 264 268 270 282 292 171 167 170 171 180 182 184 185 186 191 198 195
247 236 228 221 224 240 232 235 244 256 263 262 266 273 291 170 165 169 173 175 181 183 182 186 188 194 198
238 241 219 215 222 224 225 220 227 238 257 254 260 259 260 178 167 169 172 175 180 178 178 179 189 193 199
235 235 214 210 213 215 222 225 231 225 240 229 241 238 133 164 175 167 173 172 175 177 179 179 186 194 202
225 224 224 212 212 209 210 223 223 191 225 220 231 228 55 158 153 175 169 172 169 175 181 186 188 194 198